Theta_e
319 317 315 313 311 310 309 307 306 306 306 306 307 307 307 308 307 307 307 306 306 307 307 307 308 308 304 295 295 304 319 319 310 304 299 297 295 299 297 295 295 293 297 301 304 305 305
317 316 314 312 310 309 309 307 305 306 306 306 306 306 306 306 306 306 306 306 306 306 306 307 308 308 299 288 302 304 305 306 306 301 297 296 294 294 294 298 297 297 297 298 302 303 304
316 315 313 312 310 309 309 306 306 305 305 305 305 306 305 305 306 306 306 306 307 306 307 308 308 304 297 292 303 304 305 302 302 300 296 298 297 293 293 293 300 300 295 297 298 300 301
315 313 312 311 310 309 307 306 306 304 304 304 305 305 305 305 305 306 306 307 307 307 307 308 309 303 293 305 304 304 303 301 303 302 300 299 298 294 292 295 294 292 294 290 297 299 300
313 312 311 310 309 307 307 306 305 304 303 304 304 304 304 305 305 306 306 306 307 308 309 309 302 300 294 310 303 305 304 300 301 301 299 301 297 292 291 286 286 290 286 289 292 299 298
312 311 310 309 308 307 305 304 305 304 302 303 303 304 304 304 305 306 306 306 307 309 307 305 304 295 301 298 303 300 301 300 301 300 297 297 292 287 286 283 278 284 287 288 289 295 298
311 312 310 309 307 305 305 305 304 302 302 303 303 304 304 304 304 305 303 296 290 290 292 289 293 295 297 298 300 296 299 296 295 291 285 292 288 284 285 285 287 288 289 289 292 297 296
311 310 309 307 306 305 305 304 303 302 302 302 303 303 304 304 304 305 300 291 292 292 285 293 293 293 296 297 291 294 298 290 289 285 288 285 284 291 291 289 286 286 285 285 290 295 297
310 308 307 306 306 305 304 303 303 302 301 302 302 303 304 304 305 301 294 294 298 298 285 288 293 293 298 300 293 293 297 295 290 287 287 283 285 294 292 288 285 285 284 285 286 291 297
307 306 306 306 305 304 303 303 302 301 302 302 303 304 304 305 299 296 292 299 299 297 277 286 292 297 297 293 290 297 299 296 290 287 289 285 289 289 290 288 287 281 288 289 288 288 286
305 305 306 305 304 303 303 302 301 302 302 303 303 304 304 303 294 294 298 300 299 294 272 287 288 301 294 288 289 290 299 295 289 288 290 286 286 286 287 289 289 284 289 289 291 289 288
305 304 304 304 303 303 302 301 302 302 302 303 304 304 304 301 296 298 301 300 296 280 272 283 288 287 286 289 291 293 293 296 296 290 290 288 292 289 290 293 292 291 290 292 291 289 280
304 303 302 302 303 303 301 302 301 301 302 303 304 304 301 301 292 300 300 294 281 272 285 282 282 286 286 285 287 289 287 285 283 280 281 285 286 289 294 288 292 289 287 278 278 276 277
303 302 302 302 302 301 301 301 301 301 302 303 304 304 301 301 300 300 296 286 275 281 281 286 286 286 283 286 286 286 284 282 288 286 282 277 275 287 294 290 288 287 286 278 275 276 279
303 301 302 302 301 301 301 301 301 301 302 303 303 297 297 299 300 298 289 275 276 281 285 284 285 281 281 285 286 285 284 284 288 289 281 280 280 293 294 295 292 286 283 290 284 287 282
302 301 303 302 301 301 301 301 301 302 303 303 293 295 295 300 300 295 284 282 283 288 289 288 280 283 278 282 282 284 285 290 290 293 292 288 280 290 293 297 296 289 292 284 286 279 278
301 301 301 302 301 300 300 300 301 302 303 301 292 289 296 300 299 290 275 281 286 291 292 288 284 282 282 282 283 284 284 289 293 293 294 292 284 287 293 290 287 289 287 289 289 287 280
301 301 300 301 300 300 300 300 300 302 302 298 292 284 296 298 284 285 278 286 291 290 292 290 289 286 284 285 282 280 283 286 294 295 289 292 286 284 287 294 297 293 291 290 284 283 285
302 300 300 301 300 300 300 300 300 302 301 294 289 288 296 297 277 277 286 288 290 289 289 288 288 288 287 283 279 280 286 292 295 294 291 292 287 281 283 288 293 289 291 292 292 289 285
301 300 300 300 299 299 299 300 300 301 302 294 288 280 287 289 287 284 283 285 285 291 289 290 289 288 285 280 285 284 286 292 295 295 298 297 289 285 281 285 290 287 291 292 290 284 285
301 300 299 300 300 299 299 299 300 301 302 293 286 282 287 277 282 283 285 286 284 283 289 290 285 286 283 278 281 280 287 289 292 295 294 291 285 286 287 290 289 287 287 288 287 289 284
300 299 300 300 300 299 299 299 299 301 301 291 278 285 285 283 287 284 286 285 284 284 285 284 284 286 286 282 284 282 287 288 287 291 290 292 285 285 284 288 289 286 288 289 289 290 289
300 300 300 300 300 298 298 298 299 300 300 292 292 290 287 287 283 281 282 284 284 287 288 288 287 286 284 286 290 291 292 293 292 291 288 288 286 284 280 286 287 282 285 286 286 288 287
300 300 299 300 299 298 298 298 299 300 300 297 293 291 285 279 283 284 286 287 286 287 286 290 289 286 290 295 294 294 293 293 292 293 293 287 287 286 280 283 277 284 290 288 285 286 288
300 300 299 300 298 298 298 298 298 300 300 297 295 290 286 279 285 287 286 286 287 289 287 290 290 291 294 292 287 284 284 286 288 292 291 293 288 283 279 280 284 284 284 284 285 282 287
300 300 299 300 299 299 298 298 298 299 300 296 295 296 290 283 283 290 286 288 282 281 284 288 291 294 292 288 284 280 278 282 283 286 292 292 290 286 282 278 275 280 284 288 290 277 287
300 299 300 300 299 299 298 298 298 299 300 296 294 296 290 281 291 289 284 284 288 285 283 286 287 288 290 281 281 279 280 287 281 281 282 282 282 280 281 279 279 282 285 289 279 277 288
300 300 300 299 299 299 299 298 299 299 300 297 294 297 293 287 289 293 293 287 287 286 279 285 283 284 282 280 280 280 280 284 284 286 284 281 280 277 279 277 273 285 285 280 285 287 288
299 299 299 299 299 299 299 299 299 299 300 299 294 299 297 288 287 293 294 295 293 292 287 287 286 287 286 280 281 283 282 283 282 278 288 279 284 279 280 278 285 286 285 287 287 285 285
Wind_Speed
19 19 16 13 11 10 7 5 3 1 2 4 6 8 10 12 14 16 16 17 18 19 18 17 16 14 7 3 14 10 11 11 4 4 8 10 12 10 16 6 14 23 27 19 21 23 28
19 18 17 15 13 10 8 5 2 2 3 4 7 9 11 14 16 18 19 19 19 20 19 18 15 11 3 9 7 11 5 8 12 10 8 10 10 14 18 17 19 11 19 22 19 22 24
22 19 17 16 15 12 9 6 4 1 3 5 7 9 12 14 17 19 21 22 21 21 20 18 13 6 9 23 6 15 20 12 12 12 11 9 6 11 11 15 14 20 22 20 23 23 26
24 22 21 17 14 11 8 8 5 2 2 5 7 10 13 15 17 20 22 23 24 24 20 15 10 5 10 9 8 10 10 12 15 13 13 10 10 10 5 11 16 17 17 20 29 24 21
26 24 22 18 15 12 10 8 6 3 2 5 8 10 13 15 18 20 23 26 27 25 16 11 4 6 12 11 4 9 12 12 12 11 10 15 14 12 8 7 9 10 18 20 24 12 15
28 24 22 20 15 13 10 8 6 4 2 5 7 10 13 15 17 20 24 28 23 11 7 7 7 3 7 5 4 13 9 14 9 9 10 10 9 14 13 10 13 13 14 15 21 12 19
27 26 24 20 16 12 10 9 7 4 2 5 8 11 14 16 18 20 13 8 7 5 10 9 12 13 24 20 25 20 20 14 13 11 12 9 11 19 17 16 19 17 16 18 16 19 20
29 27 23 20 18 15 11 9 7 4 3 4 8 11 14 16 19 20 7 6 6 3 12 16 21 21 25 18 21 21 15 13 13 15 13 14 22 16 17 16 19 19 20 22 24 21 16
26 26 24 21 17 16 14 11 8 4 3 4 7 11 14 17 19 7 2 9 7 7 5 11 7 8 1 5 5 13 7 9 19 18 18 19 22 18 20 19 21 20 21 22 20 21 19
24 20 21 21 18 16 13 11 7 4 4 4 7 11 14 17 4 6 5 7 6 2 4 8 2 1 5 18 9 8 2 5 6 15 20 15 19 22 24 20 19 19 18 22 22 19 7
20 20 17 17 16 15 12 9 7 5 4 5 8 10 12 10 4 4 4 6 5 4 5 17 11 3 15 12 18 24 3 7 13 22 8 15 18 22 21 14 18 19 20 20 9 12 4
23 19 19 17 16 14 11 9 7 4 4 6 8 10 12 3 2 5 6 5 3 3 4 11 11 18 19 19 11 8 13 6 4 7 14 19 19 15 15 16 13 20 10 5 5 2 7
22 20 16 17 15 14 11 10 6 3 4 7 9 10 7 5 2 5 6 3 4 5 12 9 20 21 20 16 12 12 17 16 8 7 8 10 17 16 8 7 19 13 8 3 1 3 7
20 21 19 16 14 13 10 8 5 3 5 9 10 9 6 6 2 4 3 3 4 10 10 15 17 20 10 14 8 12 11 10 12 16 4 4 5 11 8 12 11 6 10 6 5 5 2
22 19 18 15 13 11 9 7 3 3 6 9 11 2 3 3 2 3 4 5 3 7 12 13 14 9 7 17 9 9 7 10 7 14 11 2 6 6 10 13 7 6 10 7 3 1 2
19 18 16 16 13 10 7 5 2 4 7 7 3 2 1 3 3 2 5 3 4 7 10 9 5 3 10 16 12 13 8 10 16 10 10 3 4 13 17 6 8 8 6 6 4 2 5
18 16 14 14 12 9 6 3 2 5 7 3 2 1 4 2 3 3 3 2 7 10 12 7 6 7 7 11 11 11 9 14 21 10 10 5 5 3 3 4 3 6 4 5 3 2 2
16 18 14 13 10 8 6 3 2 5 6 2 3 2 3 2 4 2 2 2 8 9 5 5 3 3 5 11 6 5 7 10 18 10 6 4 2 1 3 9 3 4 3 6 2 3 2
15 14 13 13 11 8 5 3 2 4 5 3 3 4 3 3 2 3 6 6 5 4 6 7 5 4 4 4 6 3 10 13 17 10 3 3 1 2 2 2 5 4 5 7 3 3 3
15 14 13 13 10 8 5 3 3 4 4 1 2 3 2 1 2 0 4 4 8 6 4 9 8 5 5 3 4 5 11 9 13 12 10 6 4 6 4 3 4 1 12 9 5 2 4
16 15 12 11 11 9 6 3 3 5 4 1 2 3 6 2 1 2 3 4 6 6 2 5 5 10 7 5 7 4 5 11 10 15 8 6 7 9 13 10 14 10 15 9 9 7 8
17 15 11 12 12 9 7 3 3 5 5 0 4 0 2 2 5 4 2 3 5 7 3 7 5 11 11 4 5 13 13 3 4 8 6 6 5 8 14 16 21 15 22 19 19 15 10
18 16 14 12 13 9 7 4 3 4 1 3 3 2 4 3 2 3 5 2 6 8 5 8 6 8 9 9 16 17 15 12 10 2 5 4 2 1 5 11 11 14 19 22 23 21 12
17 16 15 14 13 9 7 5 2 3 0 2 2 2 2 3 1 0 5 5 7 9 6 6 8 5 9 14 19 9 6 10 5 4 4 0 5 2 2 6 6 7 15 22 24 20 18
16 17 16 16 14 10 8 5 2 2 2 2 2 3 3 2 3 7 7 5 7 8 9 8 5 6 9 9 4 4 3 6 7 7 5 5 2 2 4 3 5 11 16 11 6 12 18
17 18 16 17 13 11 8 5 2 0 1 2 2 2 2 3 3 9 4 5 4 5 8 5 13 6 9 3 3 4 3 4 4 8 12 8 9 3 1 5 5 6 19 14 5 8 14
17 17 18 16 12 12 9 6 3 1 1 1 1 3 3 2 3 5 3 3 4 5 4 5 10 8 7 5 3 3 4 7 5 8 9 7 6 7 5 5 3 15 19 14 4 3 7
16 18 17 15 14 12 10 8 5 3 3 3 2 2 2 2 4 4 5 3 5 4 2 6 6 7 5 7 5 4 3 3 1 6 5 6 5 5 5 5 4 21 7 8 4 6 8
16 16 17 16 15 13 11 9 7 6 6 3 2 3 3 2 4 1 6 8 5 3 0 4 3 5 2 4 4 3 3 4 4 3 8 5 4 3 6 4 4 8 11 10 9 6 6
Wind_Direction
190 183 184 184 181 181 183 176 184 206 311 329 331 329 331 325 320 317 315 311 310 306 307 309 314 325 339 256 248 267 203 221 232 208 226 241 268 230 233 249 236 255 256 254 252 241 252
190 182 179 179 177 186 187 183 216 239 313 332 326 332 328 324 320 317 315 311 303 301 304 304 305 310 246 266 266 273 305 250 229 232 242 238 240 266 276 252 234 255 269 263 258 246 253
184 177 181 178 174 183 181 182 196 227 323 327 327 327 323 321 319 316 309 302 298 298 293 293 300 279 233 243 277 314 312 290 284 292 252 256 240 236 318 293 259 246 259 266 257 254 249
175 176 181 177 174 173 183 181 182 200 300 320 320 323 323 321 317 311 307 303 298 289 289 287 290 267 253 253 252 282 275 272 271 262 263 282 296 284 250 295 292 287 269 256 247 247 251
171 175 172 173 167 171 178 185 176 185 285 313 320 323 320 321 316 311 309 305 296 288 276 271 253 196 269 309 229 239 240 253 266 277 258 252 248 247 271 258 281 247 248 252 263 252 238
168 174 172 163 166 168 185 185 180 175 267 303 316 319 319 319 316 315 316 303 289 294 237 227 230 320 260 284 267 333 312 323 250 266 285 252 238 233 232 231 239 250 256 254 262 227 227
169 172 159 160 161 174 182 179 177 193 234 300 315 317 318 317 316 314 334 333 14 344 49 268 282 283 296 302 315 314 310 311 315 303 275 260 237 236 235 229 246 263 273 261 254 242 251
162 158 157 160 164 172 184 186 184 214 259 308 311 315 314 316 316 314 321 55 42 281 300 275 265 265 271 268 283 275 278 267 264 259 274 268 251 249 243 239 239 251 259 270 284 282 261
158 156 156 156 171 171 185 182 188 209 259 295 308 309 312 316 313 315 4 40 36 15 301 297 246 239 125 35 266 277 345 17 312 246 243 246 259 243 239 231 239 247 235 252 255 279 288
148 153 160 162 168 173 181 180 188 205 246 292 304 309 316 320 314 330 54 19 352 5 24 286 106 309 304 334 272 321 66 61 263 288 263 248 258 253 261 225 224 247 249 243 254 257 270
151 151 159 161 173 174 174 175 180 203 261 292 302 307 319 325 294 10 356 360 327 60 71 340 24 346 322 333 308 308 291 298 256 273 316 264 256 256 262 281 221 241 246 257 259 55 290
152 156 166 168 175 171 169 175 189 200 264 290 300 308 333 44 165 268 337 313 19 57 7 323 343 322 325 317 339 290 314 342 284 277 265 258 266 260 263 270 272 245 217 62 63 37 247
152 159 173 172 178 165 176 178 196 216 277 290 295 309 315 308 273 344 319 5 35 74 338 331 327 324 310 323 321 318 319 304 282 292 275 285 265 256 238 298 287 246 125 56 76 189 230
160 162 178 174 168 164 176 189 201 237 280 291 298 315 276 238 356 310 323 56 51 356 324 325 327 316 307 342 316 298 293 289 263 218 303 248 298 220 216 210 246 212 133 159 181 197 184
160 163 179 169 169 163 171 190 195 266 292 299 307 254 244 241 256 2 54 67 36 330 314 325 325 317 291 336 331 329 300 290 257 167 192 2 239 333 267 280 233 194 157 155 87 191 323
161 170 175 167 163 163 172 178 197 278 288 309 326 224 148 212 142 31 64 267 358 323 330 337 321 313 300 337 340 343 327 301 326 189 197 69 0 285 273 302 21 143 143 143 73 236 239
163 154 165 161 156 157 174 173 225 280 294 348 280 154 235 194 94 45 135 287 311 334 20 340 339 304 284 332 326 337 314 307 356 346 96 109 146 250 73 243 97 30 111 76 146 233 349
171 169 164 162 155 165 179 157 291 295 312 294 260 96 236 145 56 229 194 290 283 13 27 354 325 306 269 317 316 331 312 304 313 330 16 64 275 192 141 2 61 63 88 177 195 141 193
156 164 163 164 158 168 174 150 296 315 349 319 248 134 270 107 93 352 333 332 335 42 13 344 279 202 268 294 345 333 332 289 305 14 62 242 262 17 30 98 135 144 229 235 137 352 5
151 164 160 151 162 172 181 168 281 332 345 319 2 52 313 154 187 186 356 327 336 63 336 331 289 330 302 282 212 288 324 305 324 357 340 174 68 12 329 348 289 241 172 198 108 105 45
159 166 169 171 172 171 179 188 283 329 330 53 30 254 186 228 318 88 328 289 329 353 243 296 314 354 324 325 326 333 327 313 333 5 0 63 33 345 309 232 82 35 63 60 120 88 62
168 171 171 170 175 168 182 193 281 328 336 323 137 167 336 276 158 224 75 312 341 313 312 293 357 341 330 352 331 319 320 307 300 329 3 32 38 341 53 97 75 74 70 58 59 77 91
177 176 170 173 162 165 186 197 263 338 357 285 306 335 108 244 219 143 186 255 310 320 316 316 15 347 324 324 311 292 281 262 272 325 8 54 1 42 354 313 104 67 69 69 61 50 52
176 174 173 170 162 171 190 189 224 355 232 300 326 295 65 270 307 358 54 1 315 305 279 295 45 6 293 299 300 283 241 269 216 199 150 54 316 113 342 337 52 90 49 79 69 42 38
173 173 180 173 169 176 184 178 148 350 25 293 314 32 29 331 350 20 41 338 306 353 344 44 335 304 313 310 307 337 327 16 344 330 243 186 248 340 116 3 132 42 16 350 37 49 20
172 174 173 169 170 173 171 177 165 58 287 259 350 342 38 76 354 335 5 3 342 343 341 5 350 358 0 286 10 17 353 356 323 309 24 11 24 98 291 67 47 11 329 313 266 55 11
172 178 174 170 165 163 165 166 146 106 71 330 32 37 58 89 312 5 29 353 351 337 312 322 340 347 23 354 348 6 346 356 3 3 358 359 1 36 29 95 75 354 329 315 82 33 22
170 171 175 169 163 162 161 153 145 104 74 61 300 62 47 3 304 24 355 339 347 25 38 301 8 349 0 27 14 340 342 8 30 11 25 35 346 19 359 55 24 354 21 55 81 57 37
167 169 166 162 160 160 161 156 141 116 80 112 41 43 55 97 254 1 255 265 248 302 61 328 275 2 18 39 15 335 334 342 355 20 12 40 38 75 25 76 67 32 57 59 65 63 45